STARLINK-3769, 52300

Orbit data source: Space-Track

STARLINK-3769, 52300 is a payload satellite owned by SpaceX/Seattle (US) in LEO that was launched on Thu, 21 Apr 2022 UTC via an FALCON 9 launch vehicle from the Air Force Eastern Test Range (AFETR). Payload-class satellites include a variety of spacecraft equipped with specific instruments for various scientific and technological missions. These include communications satellites like Starlink; space stations such as the ISS; scientific satellites like the Hubble; Earth observation satellites from companies like Planet Labs, Umbra, and HawkEye 360; GPS; miniature CubeSats for education and research; and military/defense satellites.

Loading next visibility...
Identifier
52300, 2022-041AR
Orbit
LEO
Country
Flag of USUS
Related business
Manufacturer
SpaceX/Seattle
Mission
Operational Commercial Communications
Bus & Motor
STARLINK, Unknown motor
Mass
297 kg wet, ~275 kg dry
Launch date (UTC)
2022-04-21 (4 years ago)
Launch vehicle
FALCON 9
Launch site
Air Force Eastern Test Range (AFETR)
Object type
Payload
Rocket body
Debris
Shape & HBR
Box + 1 Pan, 10.1 m
Radar Cross Section
11.087 m², Large (>1 m²)

Expand to show TLE details & history
Last TLE update: 1 day ago

TLE from 1 day ago
0 STARLINK-3769
1 52300U 22041AR  26235.79444467  .00014154  00000-0  42956-3 0  9996
2 52300  53.1602  60.8909 0001477 110.4021 249.7141 15.34377827241067
Epoch: 2026-08-23T19:04Z
TLE epoch observation values (Epoch: 2026-08-23T19:04:00.019Z)
Latitude
0.00003°
Longitude
162.80546°
Altitude
464.021 km
Speed
7.635 km/s
True Right ascension
04h 03m 33s
True Declination
0° 00' 00"
Sunlit
Object was in daylight at epoch
Visualization orbit readout
Latitude
Unknown
Longitude
Unknown
Altitude
Unknown
Speed
Unknown
Apparent Right ascension
Unknown
Apparent Declination
Unknown
Sunlit
N/A
Visualization observer readout
Local Sidereal Time
19:32:44
Azimuth
Unknown
Elevation
Unknown
Doppler factor
Unknown
Orbital elements
Apogee altitude
464.036 km
Perigee altitude
462.016 km
Semi-major axis
6,841.163 km
Eccentricity
0.00015
Inclination
53.1602°
RAAN
60.8909°
Arg. of periapsis
110.4021°
True anomaly
249.69823°
Mean anomaly
249.7141°
Eccentric anomaly
249.70616°
Mean motion
3.83573 °/min
Orbital period
93.85 mins
BSTAR
0.00042956
Loading maneuver chart data...
Computing Atmospheric mass density...
Loading historical data...
Loading historical data...
Loading historical data...
Loading historical data...
Loading historical data...
Loading historical data...
Loading historical data...

Documentation

Showing up to 5 results
|